{"data":{"norad_id":56774,"epoch":"2026-09-20T22:00:03.000096Z","epoch_age_seconds":78893,"freshness":"FRESH","line1":"1 56774U 23078H   26263.91670139  .00059462  00000+0  42510-2 0  9993","line2":"2 56774  69.9991 232.2705 0003107 259.4977 289.1975 15.04129969  5663","mean_motion":15.04129969,"eccentricity":0.0003107,"inclination_deg":69.9991,"raan_deg":232.2705,"arg_perigee_deg":259.4977,"mean_anomaly_deg":289.1975,"bstar":0.004251,"rev_number":566,"period_min":95.73640773592,"perigee_km":552.02375436801,"apogee_km":556.33149467569,"semimajor_km":6932.3146245219,"source":"CELESTRAK","updated_at":"2026-09-21T09:00:33.486342Z"}}